EJU17CM LPPT-LPPT

Flight info

Callsign EJU17CM
Flight time 0h 12m
Altitude 28000
Route PESEX
Aircraft A320/M-SDE3FGHIRWY/LB1

Departure

Time 2026-05-06 14:52
Airport Lisbon Humberto Delgado Airport (LPPT)

Arrival

Time 2026-05-06 15:04
Airport Lisbon Humberto Delgado Airport (LPPT)
Time Latitude Longitude Altitude Speed Heading
2026-05-06 14:52 38.93919 -9.02097 5966 ft 265 kts 360°
2026-05-06 14:52 38.95699 -9.02634 5974 ft 266 kts 331°
2026-05-06 14:52 38.97071 -9.04210 5976 ft 268 kts 303°
2026-05-06 14:52 38.97701 -9.06456 5976 ft 271 kts 276°
2026-05-06 14:53 38.97742 -9.08889 5976 ft 273 kts 270°
2026-05-06 14:53 38.97683 -9.11332 5975 ft 274 kts 270°
2026-05-06 14:53 38.97611 -9.13779 5978 ft 274 kts 270°
2026-05-06 14:53 38.97481 -9.16217 5974 ft 275 kts 259°
2026-05-06 14:54 38.96685 -9.18450 5979 ft 278 kts 231°
2026-05-06 14:54 38.95318 -9.20203 5980 ft 279 kts 227°
2026-05-06 14:54 38.94016 -9.22045 5837 ft 276 kts 230°
2026-05-06 14:54 38.92755 -9.23892 5582 ft 276 kts 227°
2026-05-06 14:55 38.91204 -9.25279 5325 ft 271 kts 204°
2026-05-06 14:55 38.89453 -9.26118 5073 ft 268 kts 200°
2026-05-06 14:55 38.87696 -9.26871 4821 ft 266 kts 199°
2026-05-06 14:55 38.85941 -9.27608 4543 ft 265 kts 199°
2026-05-06 14:56 38.84190 -9.28337 4284 ft 265 kts 199°
2026-05-06 14:56 38.82420 -9.29045 4081 ft 267 kts 200°
2026-05-06 14:56 38.80638 -9.29743 4036 ft 270 kts 199°
2026-05-06 14:56 38.78837 -9.30437 4031 ft 267 kts 198°
2026-05-06 14:57 38.77116 -9.31107 4031 ft 250 kts 199°
2026-05-06 14:57 38.75505 -9.31746 4031 ft 239 kts 199°
2026-05-06 14:57 38.73924 -9.32374 4042 ft 236 kts 199°
2026-05-06 14:57 38.72348 -9.33008 3922 ft 239 kts 198°
2026-05-06 14:58 38.70769 -9.33633 3662 ft 237 kts 199°
2026-05-06 14:58 38.69184 -9.34236 3412 ft 239 kts 199°
2026-05-06 14:58 38.67563 -9.34681 3157 ft 240 kts 181°
2026-05-06 14:58 38.65965 -9.34259 3019 ft 233 kts 152°
2026-05-06 14:59 38.64723 -9.33019 3030 ft 225 kts 124°
2026-05-06 14:59 38.64049 -9.31276 3029 ft 217 kts 96°
2026-05-06 14:59 38.63954 -9.29393 3035 ft 210 kts 83°
2026-05-06 14:59 38.63967 -9.27526 3032 ft 210 kts 85°
2026-05-06 15:00 38.63978 -9.25658 3031 ft 211 kts 85°
2026-05-06 15:00 38.64031 -9.23788 3013 ft 209 kts 74°
2026-05-06 15:00 38.64479 -9.22080 2939 ft 196 kts 55°
2026-05-06 15:00 38.65288 -9.20756 2764 ft 184 kts 39°
2026-05-06 15:01 38.66330 -9.19892 2541 ft 174 kts 20°
2026-05-06 15:01 38.67429 -9.19307 2307 ft 167 kts 18°
2026-05-06 15:01 38.68467 -9.18753 2077 ft 155 kts 19°
2026-05-06 15:01 38.69425 -9.18241 1874 ft 147 kts 17°
2026-05-06 15:02 38.70351 -9.17748 1687 ft 143 kts 17°
2026-05-06 15:02 38.71259 -9.17264 1512 ft 140 kts 18°
2026-05-06 15:02 38.72153 -9.16788 1324 ft 138 kts 16°
2026-05-06 15:02 38.73040 -9.16315 1139 ft 139 kts 14°
2026-05-06 15:03 38.73929 -9.15840 942 ft 140 kts 17°
2026-05-06 15:03 38.74835 -9.15357 751 ft 140 kts 17°
2026-05-06 15:03 38.75732 -9.14877 577 ft 142 kts 16°
2026-05-06 15:03 38.76631 -9.14393 373 ft 139 kts 16°
2026-05-06 15:04 38.77442 -9.13963 347 ft 108 kts 22°
2026-05-06 15:04 38.77975 -9.13678 344 ft 65 kts 22°
2026-05-06 15:04 38.78289 -9.13510 346 ft 33 kts 23°
2026-05-06 15:04 38.78424 -9.13522 344 ft 16 kts 348°
2026-05-06 15:05 38.78524 -9.13550 346 ft 14 kts 347°
2026-05-06 15:05 38.78586 -9.13568 351 ft 1 kts 347°
2026-05-06 15:05 38.78604 -9.13580 353 ft 8 kts 324°
2026-05-06 15:05 38.78615 -9.13661 349 ft 11 kts 251°
2026-05-06 15:06 38.78559 -9.13709 353 ft 9 kts 180°
2026-05-06 15:06 38.78495 -9.13692 346 ft 12 kts 168°
2026-05-06 15:06 38.78412 -9.13671 346 ft 10 kts 168°
2026-05-06 15:06 38.78399 -9.13667 346 ft 0 kts 168°
2026-05-06 15:07 38.78393 -9.13666 346 ft 4 kts 168°
2026-05-06 15:07 38.78342 -9.13652 351 ft 14 kts 167°
2026-05-06 15:07 38.78239 -9.13623 345 ft 15 kts 168°
2026-05-06 15:08 38.78146 -9.13597 349 ft 13 kts 168°
2026-05-06 15:08 38.78064 -9.13576 349 ft 11 kts 168°
2026-05-06 15:08 38.77995 -9.13557 347 ft 9 kts 168°
2026-05-06 15:08 38.77943 -9.13543 346 ft 7 kts 168°
2026-05-06 15:09 38.77897 -9.13531 348 ft 9 kts 168°
2026-05-06 15:09 38.77842 -9.13517 348 ft 9 kts 168°
2026-05-06 15:09 38.77751 -9.13493 347 ft 15 kts 168°
2026-05-06 15:09 38.77655 -9.13467 351 ft 13 kts 167°
2026-05-06 15:10 38.77572 -9.13444 347 ft 12 kts 167°
2026-05-06 15:10 38.77499 -9.13425 347 ft 10 kts 168°
2026-05-06 15:10 38.77436 -9.13409 347 ft 8 kts 169°
2026-05-06 15:10 38.77383 -9.13395 351 ft 7 kts 169°
2026-05-06 15:11 38.77337 -9.13370 354 ft 10 kts 136°
2026-05-06 15:11 38.77327 -9.13295 347 ft 8 kts 85°
2026-05-06 15:11 38.77302 -9.13255 352 ft 6 kts 158°
2026-05-06 15:11 38.77249 -9.13239 347 ft 11 kts 169°
2026-05-06 15:12 38.77173 -9.13220 354 ft 10 kts 168°
2026-05-06 15:12 38.77095 -9.13198 350 ft 14 kts 168°
2026-05-06 15:12 38.77004 -9.13174 347 ft 13 kts 168°
2026-05-06 15:12 38.76930 -9.13143 354 ft 9 kts 129°
2026-05-06 15:13 38.76934 -9.13080 355 ft 3 kts 77°
2026-05-06 15:13 38.76934 -9.13078 354 ft 0 kts 76°